South Channel Island, Victoria

3:53 AM AEDT on February 10, 2016 (GMT +1100)
Rye - No. 16 Beach | | Change Station
CLOSE
Current Station
Personal Weather Station
Location: Rye, VICTORIA
Elevation: 66 ft
Nearby Weather Stations

Elev 66 ft 38.39 °S, 144.79 °E | Updated 0 second ago

Overcast
Overcast
63.9 °F
Feels Like 63.9 °F
N
3.6
Wind Variable Wind from South
Gusts 4.9 mph

Today
High -- | Low -- °F
--% Chance of Precip.
Yesterday
High -- | Low -- °F
Precip. -- in
Pressure 29.98 in
Visibility 6.2 miles
Clouds Overcast 1800 ft
Dew Point 60 °F
Humidity 86%
Rainfall 0.00 in
Snow Depth Not available.
6:42 AM 8:26 PM
New Moon, 2% visible
METAR YMAV 091630Z AUTO 21005KT 9999 // OVC018 18/14 Q1015
Pressure 29.98 in
Visibility 6.2 miles
Clouds Overcast 1800 ft
Dew Point 60 °F
Humidity 86%
Rainfall 0.00 in
Snow Depth Not available.
6:42 AM 8:26 PM
New Moon, 2% visible
METAR YMAV 091630Z AUTO 21005KT 9999 // OVC018 18/14 Q1015

10-Day Weather Forecast

Almanac

Astronomy

Feb. 10, 2016 Rise Set
Actual Time
Civil Twilight
Nautical Twilight
Astronomical Twilight
Moon
Length of Visible Light
Length of Day
Tomorrow will be .
, % of the Moon is Illuminated

Today's Extremes

Country Highs Country Lows

Community

WunderPhotos

Upload Photos

1,891,631 photos uploaded!

WunderBlog® & News

Nearby

Air Quality

  Air Quality AQ Index Pollutant
Not available.

Snow Depth

Station Depth Elevation

Earthquake Activity

City Distance Mag. Time & Date
Minimum magnitude displayed is 2.5.

Coastal Water Temperatures

Place Temperature

Stations

Nearby Weather Stations

Station Location Temp. Windchill Dew Point Humidity Wind Precip. Elev Updated Type